モーリー-アタール彗星

C/2022 J1 ( Maury-Attard )

English version
Home page
Updated on September 29, 2022

---------------------------------------------------------------------

・ プロフィール

発見日 2022年5月5日
発見光度 17.6等
発見者 Georges Attard and Alain Maury (San Pedro de Atacama, Chile)

・ 写真集

・ 軌道要素

Epoch 2022 Aug. 9.0 TT = JDT 2459800.5
T 2022 Feb. 19.04571 TT                                 Rudenko
q   1.6042320            (2000.0)            P               Q
z  +0.0209909      Peri.  305.66054     +0.32757469     -0.00604171
 +/-0.0000003      Node   280.72301     -0.17669103     -0.98272980
e   0.9663257      Incl.  105.93010     -0.92815683     +0.18494765
From 164 observations 2022 May 5-Aug. 19, mean residual 0".5.

・ 光度変化

        m1 = 14.0 + 5 logΔ + 10.0 log r

---------------------------------------------------------------------

軌道要素はM.P.E.C. 2022-Q139に掲載されたものです。
光度グラフはComet for Windowsで作成したものです。

---------------------------------------------------------------------

Copyright(C) Seiichi Yoshida (comet@aerith.net). All rights reserved.